Flight Track Log - Related Links

Times and Time Zones

All times are in EDT time to prevent confusion due to time zone crossing. See the SWA1096 flight status page for this flight to view local times or setup timezone preferences in your user account.


Time Position Orientation Groundspeed Altitude Reporting Facility
EDT Latitude Longitude Course Direction KTS MPH feet Rate Location/Type
Mon 09:27:09 AM 36.0761 -115.1683 269° West 180 207 3,000  Level Los Angeles Center
Mon 09:28:09 AM 36.0750 -115.2431 269° West 229 264 5,200 2,596 Climbing Los Angeles Center
Mon 09:28:53 AM 36.0964 -115.2861 302° West 237 273 7,500 2,743 Climbing Los Angeles Center
Mon 09:29:54 AM 36.1664 -115.2681 12° North 288 331 10,000 2,341 Climbing Los Angeles Center
Mon 09:30:56 AM 36.1969 -115.1603 71° East 334 384 12,300 2,656 Climbing Los Angeles Center
Mon 09:31:56 AM 36.1978 -115.0331 89° East 366 421 15,400 2,975 Climbing Los Angeles Center
Mon 09:32:57 AM 36.1992 -114.8986 89° East 384 442 18,300 2,754 Climbing Los Angeles Center
Mon 09:33:58 AM 36.2250 -114.7628 77° East 419 482 21,000 2,361 Climbing Los Angeles Center
Mon 09:34:59 AM 36.3317 -114.6569 39° Northeast 414 476 23,100 1,869 Climbing Los Angeles Center
Mon 09:36:00 AM 36.4036 -114.5872 38° Northeast 413 475 24,800 1,951 Climbing Los Angeles Center
Mon 09:37:02 AM 36.5161 -114.4800 37° Northeast 422 486 27,100 2,146 Climbing Los Angeles Center
Mon 09:38:03 AM 36.6178 -114.3947 34° Northeast 434 499 29,200 2,262 Climbing Los Angeles Center
Mon 09:39:04 AM 36.7214 -114.3169 31° Northeast 436 502 31,700 1,869 Climbing Los Angeles Center
Mon 09:40:05 AM 36.8214 -114.2406 31° Northeast 427 491 33,000 634 Climbing Los Angeles Center
Mon 09:41:07 AM 36.9217 -114.1614 32° Northeast 427 491 33,000  Level Los Angeles Center
Mon 09:42:08 AM 37.0225 -114.0833 32° Northeast 427 491 33,000  Level Los Angeles Center
Mon 09:43:10 AM 37.1233 -114.0036 32° Northeast 428 493 33,000  Level Los Angeles Center
Mon 09:44:03 AM 37.2294 -113.9228 31° Northeast 426 490 33,000  Level Salt Lake Center
Mon 09:45:04 AM 37.3308 -113.8433 32° Northeast 429 494 33,000  Level Salt Lake Center
Mon 09:46:05 AM 37.4317 -113.7619 33° Northeast 430 495 33,000  Level Salt Lake Center
Mon 09:47:06 AM 37.5322 -113.6822 32° Northeast 428 493 33,000  Level Salt Lake Center
Mon 09:48:07 AM 37.6331 -113.6011 32° Northeast 428 493 33,000  Level Salt Lake Center
Mon 09:49:08 AM 37.7347 -113.5208 32° Northeast 429 494 33,000  Level Salt Lake Center
Mon 09:50:09 AM 37.8347 -113.4397 33° Northeast 426 490 33,000  Level Salt Lake Center
Mon 09:51:10 AM 37.9369 -113.3592 32° Northeast 430 495 33,000  Level Salt Lake Center
Mon 09:52:11 AM 38.0394 -113.2758 33° Northeast 434 499 33,000  Level Salt Lake Center
Mon 09:53:12 AM 38.1414 -113.1936 32° Northeast 433 498 33,000  Level Salt Lake Center
Mon 09:54:13 AM 38.2436 -113.1100 33° Northeast 435 501 33,000  Level Salt Lake Center
Mon 09:55:14 AM 38.3450 -113.0275 33° Northeast 432 497 33,000 -148 Level Salt Lake Center
Mon 09:56:15 AM 38.4519 -112.9647 25° Northeast 424 488 32,700 -634 Descending Salt Lake Center
Mon 09:57:17 AM 38.5603 -112.9081 22° Northeast 421 484 31,700 -829 Descending Salt Lake Center
Mon 09:58:18 AM 38.6678 -112.8494 23° Northeast 420 483 31,000 -344 Descending Salt Lake Center
Mon 09:59:19 AM 38.7931 -112.7828 23° Northeast 408 470 31,000 -197 Level Salt Lake Center
Mon 10:00:20 AM 38.8992 -112.7247 23° Northeast 412 474 30,600 -689 Descending Salt Lake Center
Mon 10:01:21 AM 39.0033 -112.6686 23° Northeast 407 468 29,600 -984 Descending Salt Lake Center
Mon 10:02:22 AM 39.1069 -112.6128 23° Northeast 404 465 28,600 -984 Descending Salt Lake Center
Mon 10:03:23 AM 39.2086 -112.5575 23° Northeast 398 458 27,600 -934 Descending Salt Lake Center
Mon 10:04:24 AM 39.2989 -112.5078 23° Northeast 391 450 26,700 -1,082 Descending Salt Lake Center
Mon 10:05:25 AM 39.4164 -112.4417 23° Northeast 386 444 25,400 -1,415 Descending Salt Lake Center
Mon 10:06:27 AM 39.5092 -112.3875 24° Northeast 371 427 23,800 -1,659 Descending Salt Lake Center
Mon 10:07:28 AM 39.6003 -112.3350 24° Northeast 360 414 22,000 -1,721 Descending Salt Lake Center
Mon 10:08:29 AM 39.6892 -112.2853 23° Northeast 352 405 20,300 -1,639 Descending Salt Lake Center
Mon 10:10:31 AM 39.8569 -112.1856 25° Northeast 333 383 17,000 -1,607 Descending Salt Lake Center
Mon 10:11:32 AM 39.9378 -112.1383 24° Northeast 321 369 15,400 -1,676 Descending Salt Lake Center
Mon 10:12:22 AM 40.0175 -112.1158 12° North 319 367 13,900 -2,000 Descending Salt Lake Center
Mon 10:13:17 AM 40.0997 -112.0856 16° North 335 386 11,900 -1,808 Descending Salt Lake Center
Mon 10:13:35 AM 40.1114 -112.0722 41° Northeast 333 383 11,700 -1,770 Descending Salt Lake Center
Mon 10:14:18 AM 40.1861 -112.0536 11° North 324 373 10,100 -1,672 Descending Salt Lake Center
Mon 10:14:36 AM 40.1972 -112.0417 39° Northeast 323 372 10,000 -100 Descending Salt Lake Center
Mon 10:15:18 AM 40.2703 -112.0225 11° North 319 367 10,000  Level Salt Lake Center
Mon 10:15:37 AM 40.3003 -112.0053 24° Northeast 319 367 10,000  Level Salt Lake Center
Mon 10:16:19 AM 40.3567 -111.9906 11° North 322 371 10,000 -295 Level Salt Lake Center
Mon 10:16:38 AM 40.3833 -111.9739 25° Northeast 310 357 9,700 -984 Descending Salt Lake Center
Mon 10:17:20 AM 40.4353 -111.9639 North 283 326 9,000 -689 Descending Salt Lake Center
Mon 10:17:39 AM 40.4586 -111.9581 11° North 272 313 9,000 -590 Level Salt Lake Center
Mon 10:18:21 AM 40.5053 -111.9686 350° North 238 274 8,400 -492 Descending Salt Lake Center
Mon 10:18:40 AM 40.5236 -111.9661 North 234 269 8,500 -300 Climbing Salt Lake Center
Mon 10:19:41 AM 40.5878 -111.9736 355° North 230 265 8,000 -833 Descending Salt Lake Center
Mon 10:20:28 AM 40.6353 -111.9839 351° North 216 249 7,000 -1,161 Descending Salt Lake Center
Mon 10:20:43 AM 40.6458 -111.9803 15° North 213 245 6,800 -984 Descending Salt Lake Center
Mon 10:21:29 AM 40.6878 -111.9886 351° North 192 221 6,000 -984 Descending Salt Lake Center
Mon 10:21:44 AM 40.6969 -111.9861 12° North 185 213 5,800 -885 Descending Salt Lake Center
Mon 10:22:30 AM 40.7292 -111.9914 353° North 151 174 5,100 -787 Descending Salt Lake Center
Mon 10:22:45 AM 40.7364 -111.9908 North 148 170 5,000 -689 Descending Salt Lake Center
Mon 10:23:31 AM 40.7667 -111.9958 353° North 138 159 4,400 -677 Descending Salt Lake Center
Mon 10:23:47 AM 40.7739 -111.9950 North 136 157 4,300 -375 Descending Salt Lake Center
Mon 10:25:00 AM 40.7833 -111.9667 North  Level FlightAware Approximate

Login

Don't have an account? Register now (free) for customized features, flight alerts, and more!